User: anonymous   Login
Location: *
(51.5000°N, 0.1100°W)
Time: 03:47:21
(UTC+00:00)
Language:

Cosmos 1655 Rocket - Orbit

View from above orbital plane
View from above orbital plane
View from above satellite
View from above satellite

Ground track
Ground track

The orbit data is extracted from the following two-line orbital elements,

1 15752U 85041B   24194.54039097  .00000022  00000-0  69701-5 0  9997
2 15752  82.9486 201.5734 0024928 145.3510 214.9276 13.73237510960003
Epoch (UTC): 12 July 2024 12:58:09
Eccentricity: 0.0024928
inclination: 82.9486°
perigee height: 969 km
apogee height: 1006 km
right ascension of ascending node: 201.5734°
argument of perigee: 145.3510°
revolutions per day: 13.73237510
mean anomaly at epoch: 214.9276°
orbit number at epoch: 96000

The dashed part of the orbit path shows where the satellite is in the earth's shadow,  

DLR